Palm Springs International Airport
KPSP : rendu visible

Aérodrome :











RETROUVEZ-NOUS SUR...

 
LOGIN :

S'inscrire | Disclaimer

   EN    FR    IT 

 









Légende :    VFR   VFR Marginal   IFR   IFR Intensif   IFR Très Intensif
Visi : 
Plafond : 
>= 8 km
>= 3000ft
5 à 8 km
1000 à 3000 ft
1500m à 5 km
500 à 1000 ft
800 à 1500m
200 à 500 ft
< 800m
< 200 ft
Symboles :   Orages  Brouillard  Fortes neiges  Fortes précipitations  Vent > 20 kt






- Altitude de l'aérodrome : 477 ft
- Code IATA : PSP


KPSP - Palm Springs International

DERNIER METAR :
  • 300253Z AUTO 32019G30KT 10SM CLR 32/12 A2977 RMK AO2 PK WND 32030/0244 SLP078 T03220117 53004

METARs EXPIRÉS :
  • 300153Z AUTO 32019G25KT 10SM CLR 35/12 A2976 RMK AO2 SLP072 T03500117
  • 300053Z 32017G24KT 10SM CLR 37/12 A2975 RMK AO2 SLP071 T03720117

TAF KPSP
Valide du 30 à 00h jusqu'au 31 à 00h UTC


292340Z 3000/3024 33015G25KT P6SM SCT200
FM300700 32009KT P6SM SCT200
FM301000 VRB04KT P6SM SCT200
FM302000 33015G25KT P6SM SCT200
FIR KZLA / Amérique du Nord



MET'MAP, la Météo Aéronautique d'un coup d'oeil ! - Copyright ORBIFLY Décembre 2007 - Disclaimer

ORBIFLY MET'MAP TEAM :

Programmation & Développement : Alexandra Zaïnal
Sur une idée originale de : Baudouin d'Aumeries
Assistance à la programmation : Marc-Olivier Méhu
Soutien technique & logistique : Manuel Goepfert

Contact : metmap@orbifly.com




SOURCES & CREDITS :

   NOAA       Earth
Advisory